| time (UTC) | temp C | wind direction | speed KPH | gust KPH | rain 1hr cm | rain 24hr cm | rain mn cm | humidity % | barometer mb |
| 20260505160721 | 27 | 63 | 9.7 | 11.3 | 0.00 | 0.00 | 0.00 | 84 | 1011.8 |
| 20260505160218 | 27 | 74 | 6.4 | 9.7 | 0.00 | 0.00 | 0.00 | 84 | 1011.8 |
| 20260505153157 | 27 | 85 | 11.3 | 14.5 | 0.00 | 0.00 | 0.00 | 83 | 1011.8 |
| 20260505152654 | 27 | 98 | 8.0 | 11.3 | 0.00 | 0.00 | 0.00 | 82 | 1011.8 |
| 20260505152150 | 27 | 95 | 9.7 | 12.9 | 0.00 | 0.00 | 0.00 | 82 | 1011.8 |
| 20260505151645 | 27 | 87 | 8.0 | 11.3 | 0.00 | 0.00 | 0.00 | 82 | 1011.8 |
| 20260505151143 | 27 | 88 | 9.7 | 12.9 | 0.00 | 0.00 | 0.00 | 82 | 1011.8 |
| 20260505150639 | 27 | 92 | 9.7 | 12.9 | 0.00 | 0.00 | 0.00 | 82 | 1011.8 |
| 20260505150136 | 27 | 78 | 8.0 | 11.3 | 0.00 | 0.00 | 0.00 | 81 | 1012.2 |
| 20260505140605 | 27 | 87 | 16.1 | 24.1 | 0.00 | 0.00 | 0.00 | 84 | 1012.5 |
| 20260505125018 | 27 | 81 | 12.9 | 17.7 | 0.00 | 0.08 | 0.08 | 84 | 1012.5 |
| 20260505124515 | 27 | 101 | 16.1 | 20.9 | 0.00 | 0.08 | 0.08 | 84 | 1012.5 |
| 20260505124011 | 27 | 84 | 14.5 | 20.9 | 0.00 | 0.08 | 0.08 | 85 | 1012.5 |
| 20260505123508 | 27 | 98 | 12.9 | 16.1 | 0.00 | 0.08 | 0.08 | 85 | 1012.5 |
| 20260505123004 | 27 | 99 | 8.0 | 11.3 | 0.00 | 0.08 | 0.08 | 85 | 1012.5 |
| 20260505122501 | 27 | 93 | 12.9 | 16.1 | 0.00 | 0.08 | 0.08 | 86 | 1012.5 |
| 20260505121958 | 27 | 88 | 12.9 | 17.7 | 0.00 | 0.08 | 0.08 | 87 | 1012.5 |
| 20260505121454 | 27 | 79 | 11.3 | 12.9 | 0.00 | 0.08 | 0.08 | 87 | 1012.5 |
| 20260505120950 | 27 | 81 | 8.0 | 14.5 | 0.00 | 0.08 | 0.08 | 87 | 1012.5 |
| 20260505120447 | 27 | 71 | 9.7 | 11.3 | 0.00 | 0.08 | 0.08 | 87 | 1012.5 |
| 20260505115946 | 27 | 79 | 11.3 | 12.9 | 0.00 | 0.08 | 0.08 | 86 | 1012.2 |
| 20260505115443 | 27 | 61 | 9.7 | 16.1 | 0.00 | 0.08 | 0.08 | 86 | 1012.5 |
| 20260505114941 | 27 | 72 | 11.3 | 14.5 | 0.00 | 0.08 | 0.08 | 85 | 1012.5 |
| 20260505114437 | 27 | 83 | 11.3 | 14.5 | 0.00 | 0.08 | 0.08 | 85 | 1012.2 |
| 20260505113934 | 27 | 88 | 9.7 | 12.9 | 0.00 | 0.08 | 0.08 | 85 | 1012.2 |
| 20260505113430 | 27 | 99 | 8.0 | 9.7 | 0.00 | 0.08 | 0.08 | 85 | 1012.2 |
| 20260505112926 | 27 | 98 | 9.7 | 11.3 | 0.00 | 0.08 | 0.08 | 85 | 1012.2 |
| 20260505112424 | 27 | 109 | 8.0 | 11.3 | 0.00 | 0.08 | 0.08 | 84 | 1012.2 |
| 20260505111920 | 27 | 93 | 12.9 | 17.7 | 0.00 | 0.08 | 0.08 | 84 | 1012.2 |
| 20260505111415 | 27 | 91 | 12.9 | 17.7 | 0.00 | 0.08 | 0.08 | 84 | 1012.2 |
| 20260505110912 | 27 | 90 | 9.7 | 12.9 | 0.00 | 0.08 | 0.08 | 85 | 1012.2 |
| 20260505110409 | 27 | 83 | 11.3 | 16.1 | 0.00 | 0.08 | 0.08 | 85 | 1012.2 |
| 20260505101839 | 27 | 105 | 9.7 | 11.3 | 0.00 | 0.08 | 0.08 | 84 | 1011.5 |
| 20260505101334 | 27 | 94 | 12.9 | 16.1 | 0.00 | 0.08 | 0.08 | 85 | 1011.5 |
| 20260505100830 | 27 | 94 | 8.0 | 12.9 | 0.00 | 0.08 | 0.08 | 86 | 1011.5 |
| 20260505100327 | 27 | 97 | 8.0 | 9.7 | 0.00 | 0.08 | 0.08 | 85 | 1011.5 |
| 20260505095822 | 27 | 99 | 6.4 | 9.7 | 0.00 | 0.08 | 0.08 | 85 | 1011.1 |
| 20260505095320 | 27 | 92 | 8.0 | 9.7 | 0.00 | 0.08 | 0.08 | 85 | 1011.5 |
| 20260505094816 | 27 | 116 | 8.0 | 9.7 | 0.00 | 0.08 | 0.08 | 84 | 1011.1 |
| 20260505094313 | 27 | 99 | 8.0 | 9.7 | 0.00 | 0.08 | 0.08 | 84 | 1011.1 |
| 20260505093808 | 27 | 91 | 8.0 | 11.3 | 0.00 | 0.08 | 0.08 | 84 | 1011.1 |
| 20260505093307 | 27 | 88 | 9.7 | 12.9 | 0.00 | 0.08 | 0.08 | 83 | 1011.1 |
| 20260505092803 | 27 | 99 | 9.7 | 11.3 | 0.00 | 0.08 | 0.08 | 83 | 1011.1 |
| 20260505092304 | 27 | 81 | 11.3 | 14.5 | 0.00 | 0.08 | 0.08 | 83 | 1011.1 |
| 20260505091758 | 27 | 75 | 11.3 | 14.5 | 0.00 | 0.08 | 0.08 | 82 | 1011.1 |
| 20260505091256 | 27 | 98 | 9.7 | 12.9 | 0.00 | 0.08 | 0.08 | 82 | 1011.1 |
| 20260505090754 | 27 | 102 | 9.7 | 11.3 | 0.00 | 0.08 | 0.08 | 82 | 1010.8 |
| 20260505090252 | 27 | 91 | 12.9 | 14.5 | 0.00 | 0.08 | 0.08 | 82 | 1010.8 |
| 20260505085749 | 28 | 97 | 9.7 | 14.5 | 0.00 | 0.08 | 0.08 | 81 | 1010.5 |
| 20260505085247 | 28 | 90 | 12.9 | 16.1 | 0.00 | 0.08 | 0.08 | 78 | 1010.5 |
| 20260505084744 | 28 | 82 | 12.9 | 16.1 | 0.00 | 0.08 | 0.08 | 79 | 1010.5 |
| 20260505084243 | 28 | 95 | 9.7 | 11.3 | 0.00 | 0.08 | 0.08 | 79 | 1010.5 |
| 20260505083739 | 28 | 101 | 9.7 | 12.9 | 0.00 | 0.08 | 0.08 | 81 | 1010.5 |
| 20260505083236 | 27 | 90 | 11.3 | 14.5 | 0.00 | 0.08 | 0.08 | 81 | 1010.5 |
| 20260505082732 | 28 | 91 | 11.3 | 12.9 | 0.00 | 0.08 | 0.08 | 82 | 1010.1 |
| 20260505082230 | 28 | 65 | 19.3 | 25.7 | 0.00 | 0.08 | 0.08 | 81 | 1010.1 |
| 20260505081725 | 28 | 101 | 16.1 | 20.9 | 0.00 | 0.08 | 0.08 | 81 | 1010.1 |
| 20260505081223 | 28 | 95 | 19.3 | 25.7 | 0.00 | 0.08 | 0.08 | 80 | 1010.1 |
| 20260505080720 | 28 | 109 | 16.1 | 22.5 | 0.00 | 0.08 | 0.08 | 78 | 1010.1 |
| 20260505080215 | 28 | 108 | 14.5 | 20.9 | 0.00 | 0.08 | 0.08 | 78 | 1010.1 |
| 20260505075711 | 28 | 102 | 12.9 | 16.1 | 0.00 | 0.08 | 0.08 | 78 | 1010.1 |
| 20260505075209 | 28 | 110 | 9.7 | 17.7 | 0.00 | 0.08 | 0.08 | 78 | 1009.8 |
| 20260505074706 | 28 | 99 | 11.3 | 14.5 | 0.00 | 0.08 | 0.08 | 77 | 1009.8 |
| 20260505074202 | 29 | 90 | 14.5 | 20.9 | 0.00 | 0.08 | 0.08 | 77 | 1009.8 |
| 20260505073700 | 29 | 86 | 11.3 | 16.1 | 0.00 | 0.08 | 0.08 | 76 | 1009.8 |
| 20260505073158 | 29 | 102 | 4.8 | 11.3 | 0.00 | 0.08 | 0.08 | 77 | 1009.8 |
| 20260505072653 | 29 | 95 | 11.3 | 14.5 | 0.00 | 0.08 | 0.08 | 77 | 1009.8 |
| 20260505072150 | 29 | 108 | 12.9 | 17.7 | 0.00 | 0.08 | 0.08 | 77 | 1010.1 |
| 20260505071646 | 29 | 102 | 8.0 | 12.9 | 0.00 | 0.08 | 0.08 | 77 | 1009.8 |
| 20260505071144 | 29 | 114 | 9.7 | 12.9 | 0.00 | 0.08 | 0.08 | 76 | 1009.8 |
| 20260505070641 | 30 | 93 | 12.9 | 17.7 | 0.00 | 0.08 | 0.08 | 74 | 1009.8 |
| 20260505070137 | 30 | 134 | 8.0 | 9.7 | 0.00 | 0.08 | 0.08 | 73 | 1009.8 |
| 20260505065633 | 30 | 119 | 12.9 | 20.9 | 0.00 | 0.08 | 0.08 | 72 | 1009.8 |
| 20260505065130 | 30 | 100 | 16.1 | 20.9 | 0.00 | 0.08 | 0.08 | 73 | 1009.8 |
| 20260505064627 | 30 | 90 | 16.1 | 20.9 | 0.00 | 0.08 | 0.08 | 73 | 1009.8 |
| 20260505064125 | 30 | 100 | 11.3 | 17.7 | 0.00 | 0.08 | 0.08 | 72 | 1009.8 |
| 20260505063622 | 30 | 104 | 14.5 | 19.3 | 0.00 | 0.08 | 0.08 | 72 | 1009.8 |
| 20260505063118 | 30 | 105 | 11.3 | 19.3 | 0.00 | 0.08 | 0.08 | 73 | 1009.8 |
| 20260505062614 | 30 | 93 | 11.3 | 14.5 | 0.00 | 0.08 | 0.08 | 74 | 1009.8 |
| 20260505062112 | 29 | 116 | 8.0 | 14.5 | 0.00 | 0.08 | 0.08 | 75 | 1009.8 |
| 20260505061609 | 30 | 108 | 14.5 | 19.3 | 0.00 | 0.08 | 0.08 | 75 | 1009.8 |
| 20260505061107 | 30 | 100 | 11.3 | 16.1 | 0.00 | 0.08 | 0.08 | 75 | 1009.8 |
| 20260505060604 | 30 | 121 | 14.5 | 19.3 | 0.00 | 0.08 | 0.08 | 75 | 1009.8 |
| 20260505055556 | 29 | 129 | 9.7 | 16.1 | 0.00 | 0.08 | 0.08 | 75 | 1009.8 |
| 20260505055053 | 30 | 87 | 14.5 | 19.3 | 0.00 | 0.08 | 0.08 | 75 | 1009.8 |
| 20260505054550 | 30 | 121 | 8.0 | 17.7 | 0.00 | 0.08 | 0.08 | 74 | 1009.8 |
| 20260505054049 | 30 | 121 | 12.9 | 17.7 | 0.00 | 0.08 | 0.08 | 73 | 1009.8 |
| 20260505053545 | 30 | 109 | 12.9 | 16.1 | 0.00 | 0.08 | 0.08 | 73 | 1009.8 |
| 20260505053042 | 30 | 76 | 9.7 | 19.3 | 0.00 | 0.08 | 0.08 | 73 | 1009.8 |
| 20260505052539 | 30 | 130 | 9.7 | 16.1 | 0.00 | 0.08 | 0.08 | 73 | 1010.1 |
| 20260505052037 | 30 | 122 | 14.5 | 20.9 | 0.00 | 0.08 | 0.08 | 73 | 1010.1 |
| 20260505051533 | 30 | 150 | 6.4 | 11.3 | 0.00 | 0.08 | 0.08 | 73 | 1010.1 |
| 20260505051031 | 30 | 100 | 9.7 | 12.9 | 0.00 | 0.08 | 0.08 | 73 | 1010.1 |
| 20260505050529 | 30 | 125 | 14.5 | 20.9 | 0.00 | 0.08 | 0.08 | 72 | 1010.5 |
| 20260505041457 | 30 | 137 | 9.7 | 16.1 | 0.00 | 0.08 | 0.08 | 72 | 1010.5 |
| 20260505040954 | 30 | 127 | 14.5 | 20.9 | 0.00 | 0.08 | 0.08 | 72 | 1010.5 |
| 20260505040451 | 31 | 153 | 6.4 | 20.9 | 0.00 | 0.08 | 0.08 | 71 | 1010.5 |
| 20260505035948 | 30 | 100 | 12.9 | 19.3 | 0.00 | 0.08 | 0.08 | 72 | 1010.5 |
| 20260505035444 | 30 | 109 | 16.1 | 20.9 | 0.00 | 0.08 | 0.08 | 72 | 1010.5 |
| 20260505034941 | 30 | 109 | 16.1 | 24.1 | 0.00 | 0.08 | 0.08 | 72 | 1010.5 |
| 20260505034438 | 30 | 118 | 12.9 | 20.9 | 0.00 | 0.08 | 0.08 | 73 | 1010.5 |
| 20260505033935 | 30 | 104 | 17.7 | 27.4 | 0.00 | 0.08 | 0.08 | 73 | 1010.5 |
| 20260505033432 | 30 | 112 | 17.7 | 27.4 | 0.00 | 0.08 | 0.08 | 73 | 1010.8 |
| 20260505032930 | 30 | 113 | 8.0 | 12.9 | 0.00 | 0.08 | 0.08 | 74 | 1010.8 |
| 20260505032427 | 30 | 119 | 14.5 | 20.9 | 0.00 | 0.08 | 0.08 | 74 | 1010.8 |
| 20260505031923 | 30 | 96 | 9.7 | 14.5 | 0.00 | 0.08 | 0.08 | 74 | 1010.8 |
| 20260505031420 | 30 | 127 | 9.7 | 12.9 | 0.00 | 0.08 | 0.08 | 75 | 1011.1 |
| 20260505030917 | 30 | 98 | 14.5 | 19.3 | 0.00 | 0.08 | 0.08 | 74 | 1011.1 |
| 20260505030413 | 30 | 105 | 14.5 | 27.4 | 0.00 | 0.08 | 0.08 | 73 | 1011.1 |
| 20260505025908 | 30 | 113 | 16.1 | 22.5 | 0.00 | 0.08 | 0.08 | 75 | 1011.1 |
| 20260505025406 | 30 | 94 | 11.3 | 14.5 | 0.00 | 0.08 | 0.08 | 75 | 1011.1 |
| 20260505024905 | 30 | 114 | 16.1 | 20.9 | 0.00 | 0.08 | 0.08 | 74 | 1011.1 |
| 20260505024402 | 30 | 115 | 19.3 | 27.4 | 0.00 | 0.08 | 0.08 | 74 | 1011.1 |
| 20260505023859 | 30 | 91 | 17.7 | 22.5 | 0.00 | 0.08 | 0.08 | 74 | 1011.1 |
| 20260505023356 | 30 | 82 | 19.3 | 25.7 | 0.00 | 0.08 | 0.08 | 73 | 1011.1 |
| 20260505022853 | 30 | 110 | 16.1 | 29.0 | 0.00 | 0.08 | 0.08 | 73 | 1011.1 |
| 20260505022350 | 30 | 95 | 17.7 | 25.7 | 0.00 | 0.08 | 0.08 | 73 | 1011.1 |
| 20260505021848 | 30 | 93 | 20.9 | 27.4 | 0.00 | 0.08 | 0.08 | 73 | 1011.5 |
| 20260505021344 | 30 | 119 | 16.1 | 24.1 | 0.00 | 0.08 | 0.08 | 73 | 1011.5 |
| 20260505020840 | 30 | 111 | 14.5 | 20.9 | 0.00 | 0.08 | 0.08 | 73 | 1011.5 |
| 20260505020335 | 30 | 99 | 17.7 | 24.1 | 0.00 | 0.08 | 0.08 | 72 | 1011.5 |
| 20260505015832 | 30 | 103 | 12.9 | 17.7 | 0.00 | 0.08 | 0.08 | 73 | 1011.8 |
| 20260505015329 | 30 | 79 | 14.5 | 20.9 | 0.00 | 0.08 | 0.08 | 73 | 1011.8 |
| 20260505014827 | 30 | 96 | 19.3 | 25.7 | 0.00 | 0.08 | 0.08 | 72 | 1011.5 |
| 20260505014324 | 30 | 89 | 14.5 | 22.5 | 0.00 | 0.08 | 0.08 | 72 | 1011.8 |
| 20260505013820 | 30 | 114 | 17.7 | 27.4 | 0.00 | 0.08 | 0.08 | 73 | 1011.8 |
| 20260505013317 | 30 | 103 | 16.1 | 25.7 | 0.00 | 0.08 | 0.08 | 72 | 1011.8 |
| 20260505012816 | 30 | 97 | 17.7 | 25.7 | 0.00 | 0.08 | 0.08 | 72 | 1011.8 |
| 20260505012313 | 30 | 97 | 16.1 | 25.7 | 0.00 | 0.08 | 0.08 | 73 | 1011.8 |
| 20260505011809 | 30 | 111 | 14.5 | 20.9 | 0.00 | 0.08 | 0.08 | 73 | 1012.2 |
| 20260505011306 | 30 | 113 | 14.5 | 22.5 | 0.00 | 0.08 | 0.08 | 73 | 1011.8 |
| 20260505010802 | 30 | 104 | 16.1 | 24.1 | 0.00 | 0.08 | 0.08 | 73 | 1011.8 |
| 20260505010258 | 30 | 100 | 17.7 | 25.7 | 0.00 | 0.08 | 0.08 | 73 | 1011.8 |
| 20260505005754 | 30 | 105 | 16.1 | 24.1 | 0.00 | 0.08 | 0.08 | 73 | 1011.8 |
| 20260505005252 | 30 | 113 | 19.3 | 25.7 | 0.00 | 0.08 | 0.08 | 73 | 1011.8 |
| 20260505004749 | 30 | 100 | 19.3 | 25.7 | 0.00 | 0.08 | 0.08 | 73 | 1012.2 |
| 20260505004245 | 30 | 111 | 16.1 | 24.1 | 0.00 | 0.08 | 0.08 | 73 | 1012.2 |
| 20260505003742 | 30 | 100 | 14.5 | 22.5 | 0.00 | 0.08 | 0.08 | 74 | 1012.2 |
| 20260505003240 | 30 | 96 | 17.7 | 25.7 | 0.00 | 0.08 | 0.08 | 74 | 1012.2 |
| 20260505002736 | 30 | 112 | 16.1 | 22.5 | 0.00 | 0.08 | 0.08 | 74 | 1012.2 |
| 20260505002233 | 30 | 94 | 16.1 | 24.1 | 0.00 | 0.08 | 0.08 | 74 | 1012.2 |
| 20260505001731 | 30 | 89 | 19.3 | 29.0 | 0.00 | 0.08 | 0.08 | 74 | 1012.2 |
| 20260505001228 | 30 | 113 | 19.3 | 29.0 | 0.00 | 0.08 | 0.08 | 76 | 1012.2 |
| 20260505000725 | 30 | 100 | 14.5 | 20.9 | 0.00 | 0.08 | 0.08 | 77 | 1012.2 |
| 20260505000223 | 29 | 122 | 14.5 | 24.1 | 0.00 | 0.08 | 0.08 | 79 | 1012.2 |
| 20260504235719 | 28 | 100 | 11.3 | 16.1 | 0.00 | 0.08 | 0.08 | 80 | 1012.2 |
| 20260504235215 | 28 | 121 | 9.7 | 14.5 | 0.00 | 0.08 | 0.08 | 81 | 1012.5 |
| 20260504234713 | 28 | 114 | 12.9 | 17.7 | 0.00 | 0.08 | 0.08 | 82 | 1012.2 |
| 20260504234210 | 28 | 136 | 8.0 | 14.5 | 0.00 | 0.08 | 0.08 | 82 | 1012.2 |
| 20260504233706 | 29 | 126 | 11.3 | 16.1 | 0.00 | 0.08 | 0.08 | 81 | 1012.2 |
| 20260504233202 | 29 | 126 | 14.5 | 19.3 | 0.00 | 0.08 | 0.08 | 81 | 1012.2 |
| 20260504232700 | 29 | 137 | 11.3 | 17.7 | 0.00 | 0.08 | 0.08 | 80 | 1012.2 |
| 20260504232156 | 30 | 129 | 12.9 | 19.3 | 0.00 | 0.08 | 0.08 | 79 | 1012.2 |
| 20260504231653 | 29 | 139 | 11.3 | 17.7 | 0.00 | 0.08 | 0.08 | 79 | 1012.5 |
| 20260504231149 | 29 | 127 | 12.9 | 19.3 | 0.00 | 0.08 | 0.08 | 79 | 1012.5 |
| 20260504230646 | 29 | 120 | 8.0 | 11.3 | 0.00 | 0.08 | 0.08 | 80 | 1012.2 |
| 20260504230145 | 28 | 129 | 12.9 | 19.3 | 0.00 | 0.08 | 0.08 | 80 | 1012.2 |
| 20260504225643 | 28 | 136 | 9.7 | 14.5 | 0.00 | 0.08 | 0.08 | 82 | 1012.2 |
| 20260504225138 | 28 | 147 | 9.7 | 11.3 | 0.00 | 0.08 | 0.08 | 83 | 1012.2 |
| 20260504224635 | 28 | 159 | 8.0 | 11.3 | 0.00 | 0.08 | 0.08 | 83 | 1012.2 |
| 20260504224132 | 27 | 142 | 11.3 | 14.5 | 0.00 | 0.08 | 0.08 | 83 | 1012.2 |
| 20260504223629 | 27 | 144 | 9.7 | 14.5 | 0.00 | 0.08 | 0.08 | 83 | 1012.2 |
| 20260504223120 | 27 | 132 | 9.7 | 14.5 | 0.00 | 0.08 | 0.08 | 83 | 1012.2 |
| 20260504222617 | 27 | 129 | 8.0 | 12.9 | 0.00 | 0.08 | 0.08 | 83 | 1012.2 |
| 20260504222114 | 27 | 138 | 6.4 | 9.7 | 0.00 | 0.08 | 0.08 | 82 | 1012.2 |
| 20260504221611 | 27 | 142 | 11.3 | 17.7 | 0.00 | 0.08 | 0.08 | 82 | 1012.2 |
| 20260504221108 | 27 | 140 | 11.3 | 14.5 | 0.00 | 0.08 | 0.08 | 83 | 1012.2 |
| 20260504220604 | 27 | 144 | 6.4 | 12.9 | 0.00 | 0.08 | 0.08 | 84 | 1012.2 |
| 20260504215558 | 26 | 152 | 8.0 | 12.9 | 0.00 | 0.08 | 0.08 | 87 | 1012.2 |
| 20260504215056 | 26 | 142 | 9.7 | 16.1 | 0.00 | 0.08 | 0.08 | 88 | 1012.2 |
| 20260504214551 | 26 | 121 | 12.9 | 17.7 | 0.00 | 0.08 | 0.08 | 88 | 1012.2 |
| 20260504214048 | 26 | 131 | 8.0 | 12.9 | 0.00 | 0.05 | 0.05 | 88 | 1012.2 |
| 20260504213544 | 26 | 125 | 12.9 | 17.7 | 0.00 | 0.05 | 0.05 | 88 | 1012.2 |
| 20260504213041 | 26 | 134 | 11.3 | 16.1 | 0.00 | 0.05 | 0.05 | 87 | 1012.2 |
| 20260504212537 | 26 | 115 | 22.5 | 33.8 | 1.19 | 0.00 | 0.00 | 85 | 1012.2 |
| 20260504212035 | 27 | 141 | 17.7 | 25.7 | 0.00 | 0.00 | 0.00 | 85 | 1012.2 |
| 20260504211531 | 27 | 120 | 9.7 | 16.1 | 0.00 | 0.00 | 0.00 | 85 | 1012.2 |
| 20260504211029 | 27 | 124 | 12.9 | 22.5 | 0.00 | 0.00 | 0.00 | 85 | 1011.8 |
| 20260504210525 | 27 | 122 | 12.9 | 20.9 | 0.00 | 0.00 | 0.00 | 86 | 1011.8 |
| 20260504210022 | 27 | 131 | 9.7 | 14.5 | 0.00 | 0.00 | 0.00 | 85 | 1012.2 |
| 20260504205520 | 27 | 129 | 14.5 | 20.9 | 0.00 | 0.00 | 0.00 | 86 | 1011.8 |
| 20260504205018 | 27 | 127 | 16.1 | 25.7 | 0.00 | 0.00 | 0.00 | 86 | 1011.8 |
| 20260504204516 | 27 | 136 | 17.7 | 24.1 | 0.00 | 0.00 | 0.00 | 86 | 1011.8 |
| 20260504204015 | 27 | 130 | 14.5 | 19.3 | 0.00 | 0.00 | 0.00 | 86 | 1011.5 |
| 20260504203512 | 27 | 128 | 11.3 | 16.1 | 0.00 | 0.00 | 0.00 | 86 | 1011.5 |
| 20260504203009 | 27 | 127 | 12.9 | 19.3 | 0.00 | 0.00 | 0.00 | 86 | 1011.5 |
| 20260504202505 | 27 | 125 | 14.5 | 19.3 | 0.00 | 0.00 | 0.00 | 86 | 1011.5 |
| 20260504202001 | 27 | 131 | 12.9 | 27.4 | 0.00 | 0.00 | 0.00 | 86 | 1011.5 |
| 20260504201459 | 27 | 117 | 17.7 | 24.1 | 0.00 | 0.00 | 0.00 | 86 | 1011.1 |
| 20260504200956 | 27 | 140 | 11.3 | 16.1 | 0.00 | 0.00 | 0.00 | 85 | 1011.1 |
| 20260504200453 | 27 | 128 | 16.1 | 19.3 | 0.00 | 0.00 | 0.00 | 85 | 1011.1 |
| 20260504195949 | 27 | 126 | 14.5 | 20.9 | 0.00 | 0.00 | 0.00 | 84 | 1011.1 |
| 20260504195445 | 27 | 123 | 20.9 | 30.6 | 0.00 | 0.00 | 0.00 | 84 | 1011.1 |
| 20260504194942 | 27 | 128 | 14.5 | 22.5 | 0.00 | 0.00 | 0.00 | 84 | 1011.1 |
| 20260504194438 | 27 | 125 | 17.7 | 24.1 | 0.00 | 0.00 | 0.00 | 84 | 1011.1 |
| 20260504193934 | 27 | 123 | 14.5 | 22.5 | 0.00 | 0.00 | 0.00 | 84 | 1011.1 |
| 20260504193432 | 27 | 119 | 20.9 | 32.2 | 0.00 | 0.00 | 0.00 | 83 | 1011.1 |
| 20260504192930 | 27 | 124 | 14.5 | 22.5 | 0.00 | 0.00 | 0.00 | 84 | 1011.1 |
| 20260504192427 | 27 | 118 | 17.7 | 25.7 | 0.00 | 0.00 | 0.00 | 86 | 1011.1 |
| 20260504191926 | 27 | 134 | 16.1 | 22.5 | 0.00 | 0.00 | 0.00 | 86 | 1011.1 |
| 20260504191424 | 27 | 134 | 14.5 | 20.9 | 0.00 | 0.00 | 0.00 | 86 | 1011.1 |
| 20260504190919 | 27 | 128 | 14.5 | 24.1 | 0.00 | 0.00 | 0.00 | 87 | 1010.8 |
| 20260504190414 | 27 | 117 | 14.5 | 24.1 | 0.00 | 0.00 | 0.00 | 87 | 1010.8 |
| 20260504185911 | 27 | 125 | 14.5 | 22.5 | 0.00 | 0.00 | 0.00 | 87 | 1010.5 |
| 20260504185409 | 27 | 121 | 12.9 | 19.3 | 0.00 | 0.00 | 0.00 | 87 | 1010.5 |
| 20260504184904 | 26 | 123 | 14.5 | 17.7 | 0.00 | 0.00 | 0.00 | 86 | 1010.5 |
| 20260504184400 | 26 | 127 | 11.3 | 16.1 | 0.00 | 0.00 | 0.00 | 86 | 1010.5 |
| 20260504183856 | 26 | 135 | 9.7 | 14.5 | 0.00 | 0.00 | 0.00 | 86 | 1010.5 |
| 20260504183354 | 26 | 132 | 16.1 | 25.7 | 0.00 | 0.00 | 0.00 | 87 | 1010.5 |
| 20260504182852 | 26 | 132 | 12.9 | 19.3 | 0.00 | 0.00 | 0.00 | 87 | 1010.5 |
| 20260504182349 | 26 | 123 | 12.9 | 19.3 | 0.00 | 0.00 | 0.00 | 87 | 1010.5 |
| 20260504181845 | 27 | 131 | 12.9 | 20.9 | 0.00 | 0.00 | 0.00 | 87 | 1010.5 |
| 20260504181343 | 27 | 120 | 14.5 | 20.9 | 0.00 | 0.00 | 0.00 | 87 | 1010.5 |
| 20260504180842 | 27 | 114 | 16.1 | 20.9 | 0.00 | 0.00 | 0.00 | 87 | 1010.5 |
| 20260504180340 | 27 | 103 | 12.9 | 17.7 | 0.00 | 0.00 | 0.00 | 88 | 1010.5 |
| 20260504175838 | 27 | 119 | 12.9 | 19.3 | 0.00 | 0.00 | 0.00 | 88 | 1010.8 |
| 20260504175334 | 27 | 109 | 16.1 | 24.1 | 0.00 | 0.00 | 0.00 | 88 | 1010.5 |
| 20260504174832 | 27 | 113 | 11.3 | 12.9 | 0.00 | 0.00 | 0.00 | 88 | 1010.8 |
| 20260504174329 | 27 | 102 | 14.5 | 19.3 | 0.00 | 0.00 | 0.00 | 88 | 1010.8 |
| 20260504173826 | 27 | 99 | 12.9 | 17.7 | 0.00 | 0.00 | 0.00 | 88 | 1010.8 |
| 20260504173323 | 27 | 103 | 14.5 | 20.9 | 0.00 | 0.00 | 0.00 | 88 | 1010.8 |
| 20260504172820 | 27 | 100 | 14.5 | 20.9 | 0.00 | 0.00 | 0.00 | 88 | 1010.8 |
| 20260504172317 | 27 | 95 | 16.1 | 20.9 | 0.00 | 0.00 | 0.00 | 87 | 1010.8 |
| 20260504171812 | 27 | 93 | 14.5 | 19.3 | 0.00 | 0.00 | 0.00 | 88 | 1010.8 |
| 20260504171310 | 27 | 93 | 12.9 | 16.1 | 0.00 | 0.00 | 0.00 | 87 | 1010.8 |
| 20260504170807 | 27 | 86 | 11.3 | 19.3 | 0.00 | 0.00 | 0.00 | 87 | 1010.8 |
| 20260504170304 | 27 | 110 | 16.1 | 22.5 | 0.00 | 0.00 | 0.00 | 87 | 1010.8 |